[[{"header":{"parameterUnit":"m.s-1","parameterCategory":1,"la1":30.2992,"la2":30.254,"lo1":-89.0895,"lo2":-89.0443,"dy":0.0025,"dx":0.0025,"nx":19,"ny":19,"refTime":"2026-03-16T03:00:00:Z","depth":0,"parameterNumber":2,"parameterNumberName":"U-component_of_WINDS"},"data":[0,0,0,1.6191,1.6191,1.6197,1.6197,1.6209,1.6209,0,0,0,0,0,0,0,0,0,0,0,1.6191,1.6191,1.6191,1.6191,1.6197,1.6197,1.6209,1.6209,0,0,0,0,0,0,0,0,0,0,0,1.619,1.6191,1.6191,1.6191,1.6197,1.6197,1.6209,1.6203,0,0,0,0,0,0,0,0,0,0,1.6196,1.6198,1.6191,1.6191,1.6191,1.6197,1.6197,1.6203,1.6203,1.6208,0,1.6212,0,1.6211,1.621,1.621,0,0,0,1.6189,1.6197,1.6197,1.6191,1.6191,1.6197,1.6194,1.6203,1.6204,1.6209,1.6212,1.6212,1.6211,1.621,1.6211,1.6241,1.6241,0,0,1.6189,1.6193,1.6197,1.6198,1.6197,1.6194,1.6194,1.6203,1.6207,1.6212,1.6213,1.6211,1.6211,1.6211,1.6241,1.6241,0,0,0,1.6189,1.6192,1.6192,1.6198,1.6199,1.6194,1.6194,1.6207,1.6207,1.6213,1.6211,1.6211,1.6211,1.6241,1.6241,1.6255,0,0,0,1.6189,1.6192,1.6192,1.6195,1.6198,1.6203,1.6198,1.6206,1.6207,1.6211,1.6211,1.6211,1.6241,1.6241,1.6254,1.626,0,0,0,1.6189,1.6192,1.6194,1.6195,1.6198,1.6202,1.6203,1.6206,1.6206,1.621,1.6211,1.624,1.6241,1.6253,1.6259,1.6269,0,0,0,1.6191,1.6206,1.6194,1.6211,1.6198,1.6211,1.6203,1.6213,1.6218,1.6211,1.6241,1.6241,1.6253,1.6258,1.6268,1.6277,1.6282,0,0,1.6212,1.6209,1.6218,1.6208,1.6224,1.621,1.6229,1.623,1.6227,1.6237,1.6238,1.6254,1.6259,1.6269,1.6308,1.6312,0,0,0,1.6226,1.6232,1.6236,1.6242,1.6244,1.6246,1.6244,1.6245,1.6253,1.6233,1.6261,1.6264,1.627,1.6274,1.6277,1.6281,1.6244,1.6244,1.6243,1.6259,1.6255,1.627,1.6268,1.6273,1.6272,1.6276,1.6277,1.6271,1.6278,1.628,1.6305,1.631,1.6312,1.6317,1.6286,1.6286,1.6286,1.6286,1.6288,1.6296,1.629,1.6302,1.6298,1.6308,1.6308,1.6304,1.6313,1.6302,1.6307,1.6295,1.6316,1.632,1.6287,1.6287,1.6287,1.6287,1.6287,1.6308,1.6311,1.6313,1.6321,1.6329,1.6326,1.6335,1.6332,1.6328,1.6333,1.6335,1.6335,1.6333,1.6335,1.6335,1.6335,1.6335,1.6335,1.6335,1.6327,1.6329,1.6337,1.6342,1.6345,1.635,1.6351,1.6354,1.6357,1.6354,1.6354,1.6347,1.6319,1.6312,1.6336,1.6336,1.6336,1.6336,1.6336,1.6355,1.6349,1.6362,1.6365,1.6371,1.6379,1.6375,1.6383,1.6386,1.6391,1.6384,1.6364,1.636,1.6358,1.6351,1.6385,1.6385,1.6385,1.6385,1.6371,1.637,1.6382,1.6389,1.6395,1.6394,1.6408,1.641,1.641,1.6412,1.6407,1.6399,1.6396,1.6394,1.639,1.6384,1.6425,1.6425,1.6425,1.6388,1.6387,1.64,1.6401,1.6406,1.641,1.6424,1.6432,1.6431,1.6427,1.6413,1.6411,1.6398,1.6394,1.6387,1.6382,1.6371,0,0]},{"header":{"parameterUnit":"m.s-1","parameterCategory":1,"la1":30.2992,"la2":30.254,"lo1":-89.0895,"lo2":-89.0443,"dy":0.0025,"dx":0.0025,"nx":19,"ny":19,"refTime":"2026-03-16T03:00:00:Z","depth":0,"parameterNumber":3,"parameterNumberName":"V-component_of_WINDS"},"data":[0,0,0,-6.7577,-6.7583,-6.7881,-6.7882,-6.8266,-6.827,0,0,0,0,0,0,0,0,0,0,0,-6.7496,-6.7498,-6.7576,-6.7584,-6.7881,-6.7882,-6.8266,-6.827,0,0,0,0,0,0,0,0,0,0,0,-6.7494,-6.7498,-6.7501,-6.7585,-6.7881,-6.7882,-6.8265,-6.8038,0,0,0,0,0,0,0,0,0,0,-6.7748,-6.7681,-6.7497,-6.7501,-6.7587,-6.788,-6.7882,-6.8027,-6.8052,-6.8135,0,-6.8213,0,-6.8248,-6.8296,-6.8298,0,0,0,-6.7578,-6.766,-6.7734,-6.7502,-6.759,-6.788,-6.7745,-6.8041,-6.807,-6.8168,-6.8219,-6.8233,-6.8254,-6.8299,-6.8301,-6.8803,-6.8806,0,0,-6.7562,-6.7552,-6.7715,-6.7753,-6.7712,-6.7736,-6.7755,-6.8058,-6.8111,-6.822,-6.8242,-6.8261,-6.8301,-6.8304,-6.8801,-6.8804,0,0,0,-6.7519,-6.7541,-6.7607,-6.7738,-6.7791,-6.7745,-6.7766,-6.8098,-6.812,-6.8246,-6.8265,-6.8304,-6.8308,-6.8798,-6.8802,-6.8923,0,0,0,-6.7508,-6.7515,-6.7601,-6.7597,-6.7786,-6.7949,-6.7799,-6.8099,-6.8134,-6.8263,-6.8304,-6.8312,-6.8795,-6.88,-6.8914,-6.8982,0,0,0,-6.7474,-6.7511,-6.7557,-6.7596,-6.7724,-6.7945,-6.7985,-6.8107,-6.8147,-6.8298,-6.8313,-6.8793,-6.8799,-6.8905,-6.8968,-6.9111,0,0,0,-6.7433,-6.766,-6.7559,-6.7819,-6.7722,-6.8018,-6.7983,-6.8204,-6.8348,-6.8306,-6.8796,-6.8802,-6.8903,-6.8959,-6.9102,-6.9229,-6.9282,0,0,-6.7713,-6.7693,-6.7847,-6.7765,-6.8078,-6.7974,-6.8303,-6.8443,-6.8464,-6.8688,-6.87,-6.8917,-6.8967,-6.9109,-6.958,-6.9622,0,0,0,-6.7932,-6.8042,-6.8127,-6.8266,-6.838,-6.8482,-6.8573,-6.8624,-6.8815,-6.8579,-6.9008,-6.9038,-6.9121,-6.9182,-6.9218,-6.929,-6.883,-6.8829,-6.8829,-6.8314,-6.8331,-6.8586,-6.8639,-6.8773,-6.8864,-6.8973,-6.9057,-6.9035,-6.9135,-6.9202,-6.9487,-6.9558,-6.9585,-6.9659,-6.9271,-6.9272,-6.9272,-6.9272,-6.8725,-6.8883,-6.8848,-6.9082,-6.9098,-6.9293,-6.9389,-6.9366,-6.9548,-6.9438,-6.9512,-6.9391,-6.963,-6.9696,-6.9282,-6.928,-6.9279,-6.9278,-6.9277,-6.8976,-6.9055,-6.9115,-6.9316,-6.9468,-6.9512,-6.9689,-6.9696,-6.9704,-6.9777,-6.9847,-6.9845,-6.9843,-6.981,-6.9811,-6.9812,-6.9813,-6.9814,-6.9815,-6.9214,-6.9278,-6.9428,-6.9567,-6.9656,-6.9773,-6.9866,-6.9952,-7.0049,-7.004,-7.0041,-7.0006,-6.9651,-6.9561,-6.983,-6.9827,-6.9825,-6.9824,-6.9823,-6.9624,-6.9532,-6.9764,-6.9853,-7.0016,-7.0165,-7.0172,-7.0347,-7.0419,-7.0505,-7.0455,-7.0191,-7.017,-7.0142,-7.0068,-7.0451,-7.0451,-7.0452,-7.0452,-6.9836,-6.9826,-7.0064,-7.0206,-7.0345,-7.0375,-7.0632,-7.0705,-7.0765,-7.0809,-7.0755,-7.0657,-7.0628,-7.0624,-7.0585,-7.0516,-7.1005,-7.1006,-7.1006,-7.0088,-7.0092,-7.0312,-7.0373,-7.05,-7.0607,-7.0849,-7.101,-7.1058,-7.1029,-7.0844,-7.0821,-7.0663,-7.0611,-7.0577,-7.0516,-7.0389,0,0]}]]